{"data":{"norad_id":55278,"epoch":"2026-05-24T21:40:16.182912Z","epoch_age_seconds":80650,"freshness":"FRESH","line1":"1 55278U 23010K   26144.90296508  .00000010  00000+0  86400-5 0  9992","line2":"2 55278  69.9992 212.2229 0003845 269.0303  91.0416 14.98326926184190","mean_motion":14.98326926,"eccentricity":0.0003845,"inclination_deg":69.9992,"raan_deg":212.2229,"arg_perigee_deg":269.0303,"mean_anomaly_deg":91.0416,"bstar":8.64e-6,"rev_number":18419,"period_min":96.107196300896,"perigee_km":569.39304423043,"apogee_km":574.73774987376,"semimajor_km":6950.2023970521,"source":"CELESTRAK","updated_at":"2026-05-25T13:38:17.732412Z"}}